[[[{"header":{"parameterUnit":"kt","parameterCategory":2,"dx":1,"dy":1,"la1":30.253999710083008,"la2":30.299108505249023,"lo1":-89.0895004272461,"lo2":-89.04439544677734,"nx":28,"ny":28,"refTime":"2022-10-24T21:00:00:Z","depth":"0","parameterNumber":2,"parameterNumberName":"U-component_of_CURRENTS"},"data":[0.2528,0.2532,0.256,0.2591,0.2636,0.267,0.2734,0.2906,0.3215,0.3776,0.4285,0.4709,0.5565,0.6253,0.6468,0.631,0.5772,0.5612,0.5415,0.5827,0.5795,0.5763,0.5697,0.6069,0.6068,0.4726,0.4717,0.471,0.2563,0.2588,0.2625,0.2688,0.272,0.2786,0.2929,0.3013,0.3261,0.3712,0.4086,0.4857,0.5346,0.5738,0.6215,0.6146,0.5659,0.6027,0.5449,0.5284,0.5768,0.5714,0.6095,0.6095,0.6095,0.6095,0.6095,0.6095,0.2637,0.2642,0.2693,0.2745,0.2804,0.2882,0.2939,0.3127,0.3353,0.3705,0.4035,0.4492,0.5101,0.566,0.5703,0.5902,0.5568,0.5802,0.5718,0.5329,0.5114,0.5592,0.5969,0.5969,0.5969,0.5969,0.5968,0,0.27,0.2727,0.2765,0.2822,0.2877,0.2954,0.3067,0.3168,0.3394,0.3627,0.4003,0.429,0.484,0.5177,0.5546,0.5617,0.5237,0.5523,0.5507,0.5227,0.484,0.4689,0.5008,0.5324,0.532,0.5317,0.5315,0.5313,0.2763,0.2782,0.2873,0.2902,0.294,0.3018,0.3074,0.3241,0.3342,0.3703,0.3802,0.4192,0.4474,0.4954,0.5103,0.5334,0.5067,0.5423,0.5173,0.5192,0.5134,0.4741,0.458,0.527,0.5276,0.528,0.5284,0,0.2793,0.2855,0.2904,0.3002,0.3035,0.3068,0.3216,0.3282,0.3436,0.3605,0.3667,0.3942,0.4243,0.4405,0.4612,0.4644,0.4759,0.4911,0.4918,0.4961,0.5096,0.5014,0.4937,0.4783,0.5189,0.5195,0.5201,0,0.2857,0.2892,0.2982,0.3003,0.3059,0.314,0.3214,0.3282,0.3428,0.3543,0.3634,0.3794,0.389,0.4106,0.4146,0.4432,0.439,0.4456,0.4506,0.4466,0.4478,0.4509,0.4427,0.4284,0.4282,0.4279,0.4277,0,0.287,0.2959,0.3,0.3029,0.313,0.3163,0.3218,0.3314,0.3392,0.3509,0.3607,0.3702,0.3824,0.3888,0.4048,0.3939,0.4294,0.4151,0.4382,0.4398,0.4444,0.4459,0.4657,0.4274,0.4273,0.4272,0.4271,0,0.2913,0.296,0.3012,0.3103,0.3125,0.3162,0.3257,0.3307,0.3415,0.3463,0.3535,0.3585,0.3697,0.3635,0.3831,0.3752,0.3824,0.3883,0.3896,0.4055,0.4046,0.4309,0.4504,0.4501,0.4055,0.4052,0.4049,0,0.2909,0.2971,0.3016,0.3076,0.3115,0.3174,0.322,0.3284,0.3336,0.341,0.3456,0.3521,0.3486,0.3522,0.3564,0.3658,0.3734,0.3598,0.3822,0.3831,0.3975,0.4138,0.4139,0.4444,0.4011,0.4015,0.4018,0,0.2905,0.2993,0.2997,0.3032,0.3104,0.314,0.3191,0.3258,0.3301,0.3339,0.3406,0.3438,0.3457,0.3477,0.3492,0.354,0.3678,0.3541,0.3544,0.3678,0.3894,0.4065,0.4109,0.3653,0.3655,0.3658,0.3987,0,0.2941,0.2976,0.2995,0.3053,0.309,0.3127,0.3179,0.3213,0.3235,0.3267,0.333,0.3351,0.3395,0.3404,0.3404,0.3483,0.3525,0.3482,0.3465,0.3517,0.3659,0.3683,0.3387,0.3386,0.3386,0.3385,0,0,0.2918,0.2961,0.3001,0.3035,0.3066,0.3106,0.3139,0.3169,0.3215,0.324,0.323,0.33,0.3307,0.3371,0.3385,0.3386,0.3455,0.3381,0.3482,0.3492,0.3502,0.3639,0.3662,0.3384,0.3384,0.3384,0.3384,0,0.2932,0.2965,0.2988,0.3024,0.3076,0.3103,0.3116,0.316,0.3181,0.3215,0.3229,0.3261,0.3287,0.3316,0.3331,0.3374,0.3415,0.3381,0.3409,0.3474,0.3486,0.3496,0.3632,0.3654,0.3382,0.3382,0.3383,0,0.2931,0.2965,0.2978,0.3035,0.3063,0.3097,0.3105,0.3143,0.317,0.3171,0.3203,0.3221,0.3242,0.3278,0.3294,0.3281,0.339,0.3318,0.3321,0.3325,0.3392,0.3405,0.3416,0.3272,0.3272,0.3272,0,0,0.2939,0.2965,0.3014,0.3039,0.306,0.3093,0.3112,0.3133,0.3161,0.3173,0.3186,0.3203,0.323,0.3242,0.3262,0.3287,0.3333,0.3305,0.331,0.3314,0.3321,0.3388,0.34,0.327,0.327,0.327,0,0,0.2939,0.2991,0.3003,0.3036,0.3074,0.3112,0.3129,0.3143,0.3168,0.3169,0.3177,0.3182,0.3218,0.3218,0.32,0.3256,0.3235,0.3238,0.3256,0.3262,0.3267,0.3271,0.3189,0,0,0,0,0,0.2968,0.2985,0.2996,0.3006,0.3061,0.3105,0.3112,0.3139,0.3136,0.3154,0.317,0.3163,0.3217,0.3201,0.3204,0.3226,0.3253,0.3256,0.3259,0.3288,0.3295,0.3301,0,0,0,0,0,0,0.2972,0.2984,0.2995,0.3033,0.3046,0.3104,0.3103,0.311,0.3136,0.3138,0.316,0.3163,0.3169,0.32,0.3202,0.3224,0.3189,0.3254,0.3257,0.3259,0.329,0.3296,0.3301,0,0,0,0,0,0.2976,0.2986,0.3068,0.3033,0.3044,0.3084,0.3103,0.3109,0.3128,0.3146,0.3151,0.3149,0.3168,0.3172,0.3201,0.3223,0.3187,0.3188,0.3256,0.3258,0.326,0.3293,0,0,0,0,0,0,0.2978,0.2985,0.3071,0.3075,0.3034,0.3082,0.309,0.3108,0.3135,0.314,0.3135,0.3136,0.3168,0.3171,0.3173,0.3223,0.3185,0.3186,0.3187,0.3258,0.3259,0.3261,0,0,0,0,0,0,0.298,0.2988,0.3073,0.3072,0.3076,0.308,0.3087,0.3097,0.3134,0.312,0.3123,0.3135,0.3161,0.317,0.3172,0.3186,0.3184,0.3185,0.3186,0.3186,0.3259,0.326,0,0,0,0,0,0,0.2984,0.2991,0.3071,0.3074,0.3078,0.3125,0.3087,0.3138,0.3146,0.3118,0.3147,0.3147,0.316,0.3162,0.3171,0.3184,0.3185,0.3184,0.3185,0.3185,0.3186,0,0,0,0,0,0,0,0.2987,0.2935,0.3049,0.3076,0.3079,0.3115,0.3116,0.3117,0.3146,0.3147,0.3147,0.3147,0.3179,0.318,0.3181,0.3182,0,0,0.3184,0.3185,0,0,0,0,0,0,0,0,0.2933,0.2935,0.3049,0.305,0.3051,0.3115,0.3116,0.3117,0.3146,0.3147,0.3147,0.3147,0.3179,0.318,0.3181,0,0,0,0,0,0,0,0,0,0,0,0,0,0,0,0.3049,0.305,0,0.3115,0.3116,0.3116,0.3146,0.3147,0.3147,0.3147,0.3179,0.318,0.3181,0,0,0,0,0,0,0,0,0,0,0,0,0,0,0,0,0,0,0,0,0,0,0,0,0,0,0,0,0,0,0,0,0,0,0,0,0,0,0,0,0,0,0,0,0,0,0,0,0,0,0,0,0,0,0,0,0,0,0,0,0,0,0,0,0,0,0,0,0]}],[{"header":{"parameterUnit":"kt","parameterCategory":2,"dx":1,"dy":1,"la1":30.253999710083008,"la2":30.299108505249023,"lo1":-89.0895004272461,"lo2":-89.04439544677734,"nx":28,"ny":28,"refTime":"2022-10-24T21:00:00:Z","depth":"0","parameterNumber":3,"parameterNumberName":"V-component_of_CURRENTS"},"data":[0.0814,0.0903,0.0942,0.117,0.1282,0.1518,0.1682,0.2005,0.228,0.2783,0.305,0.3181,0.2724,0.0271,-0.13,-0.1737,-0.2282,-0.2414,-0.2665,-0.2168,-0.2123,-0.2081,-0.2148,-0.2521,-0.2523,-0.336,-0.3369,-0.3376,0.0771,0.0813,0.0893,0.1012,0.1144,0.116,0.1375,0.1572,0.1909,0.2191,0.2419,0.2392,0.1588,0.0785,-0.0397,-0.1083,-0.1397,-0.1473,-0.1706,-0.1807,-0.1013,-0.1035,-0.1177,-0.1176,-0.1176,-0.1176,-0.1176,-0.1175,0.0695,0.0733,0.078,0.0864,0.0941,0.1083,0.1211,0.1354,0.1566,0.1856,0.1857,0.2062,0.1497,0.0802,0.0306,-0.0563,-0.0607,-0.0815,-0.1032,-0.1137,-0.1319,-0.0412,-0.0463,-0.0463,-0.0463,-0.0463,-0.0463,0,0.0639,0.0639,0.0673,0.0754,0.0807,0.0882,0.0955,0.1062,0.112,0.1261,0.1475,0.1532,0.1209,0.0891,0.0373,0.0086,-0.0593,-0.0345,-0.0649,-0.1002,-0.1138,-0.1307,-0.042,-0.0456,-0.0455,-0.0455,-0.0455,-0.0455,0.0571,0.0591,0.0618,0.0658,0.066,0.0699,0.0741,0.0742,0.0815,0.0934,0.1012,0.0976,0.1009,0.0674,0.026,-0.0086,-0.0385,-0.0331,-0.0433,-0.0698,-0.0939,-0.1071,-0.1199,-0.0454,-0.0454,-0.0454,-0.0454,0,0.0539,0.0525,0.0559,0.0558,0.0567,0.0593,0.0635,0.0671,0.0661,0.0755,0.0763,0.0711,0.0621,0.0373,0.0152,-0.0061,-0.0429,-0.0308,-0.0274,-0.0297,-0.0681,-0.0878,-0.1182,-0.1347,-0.0434,-0.0434,-0.0434,0,0.0477,0.0498,0.0482,0.0496,0.0537,0.0497,0.0532,0.0501,0.05,0.0567,0.0426,0.0489,0.0234,0.0157,-0.0033,-0.0187,-0.0181,-0.0361,-0.0388,-0.039,-0.0389,-0.0679,-0.0883,-0.0399,-0.0399,-0.0398,-0.0398,0,0.0424,0.0427,0.045,0.0447,0.0431,0.0432,0.0419,0.0374,0.0395,0.0327,0.0359,0.0218,0.0212,0.0048,-0.0085,-0.0123,-0.0219,-0.0294,-0.0377,-0.0376,-0.0428,-0.0431,-0.0694,-0.0398,-0.0398,-0.0398,-0.0398,0,0.0359,0.0365,0.0387,0.0385,0.0383,0.0381,0.0364,0.0346,0.0281,0.0252,0.0186,0.0122,0.0047,-0.0018,-0.0159,-0.0138,-0.0229,-0.0297,-0.0301,-0.0335,-0.037,-0.0397,-0.0375,-0.0661,-0.0342,-0.0342,-0.0341,0,0.0321,0.0334,0.0301,0.0319,0.0325,0.0272,0.0262,0.022,0.0178,0.0148,0.0053,0.0016,-0.0069,-0.0085,-0.0147,-0.0231,-0.0271,-0.0248,-0.0367,-0.037,-0.0361,-0.0332,-0.0339,-0.0366,-0.0335,-0.0336,-0.0336,0,0.0283,0.0249,0.025,0.0254,0.0211,0.0203,0.0182,0.0143,0.0137,0.0065,0.0049,-0.0053,-0.0098,-0.0146,-0.021,-0.025,-0.0261,-0.0293,-0.0297,-0.0297,-0.0331,-0.0324,-0.0327,-0.0299,-0.03,-0.03,-0.0331,0,0.0228,0.0222,0.0223,0.0198,0.018,0.0172,0.0121,0.0098,0.006,0.0016,-0.0042,-0.0128,-0.0199,-0.0222,-0.0273,-0.0303,-0.0316,-0.0354,-0.0387,-0.0359,-0.0375,-0.0379,-0.0365,-0.0366,-0.0368,-0.0369,0,0,0.0201,0.019,0.0144,0.0141,0.0127,0.0066,0.0069,0.0032,-0.0037,-0.0059,-0.0082,-0.0202,-0.0269,-0.0325,-0.032,-0.0354,-0.0377,-0.0361,-0.0369,-0.0369,-0.0369,-0.0382,-0.0384,-0.0372,-0.0372,-0.0373,-0.0373,0,0.0176,0.0147,0.0147,0.0123,0.0081,0.0046,0.0044,-0.0014,-0.0042,-0.0084,-0.015,-0.0203,-0.0288,-0.0342,-0.0382,-0.037,-0.0423,-0.0382,-0.0337,-0.038,-0.0377,-0.0375,-0.0388,-0.0388,-0.0377,-0.0376,-0.0376,0,0.0145,0.0115,0.0107,0.0064,0.003,0.0016,-0.0033,-0.0058,-0.0072,-0.0163,-0.02,-0.026,-0.0342,-0.0383,-0.0407,-0.0424,-0.0461,-0.0457,-0.045,-0.0456,-0.0503,-0.0499,-0.0496,-0.0535,-0.0535,-0.0536,0,0,0.013,0.0117,0.0063,0.0054,0.0039,-0.0018,-0.004,-0.0072,-0.0127,-0.0151,-0.0213,-0.0279,-0.0337,-0.0371,-0.0429,-0.0466,-0.0502,-0.0472,-0.0464,-0.0458,-0.0459,-0.0504,-0.0501,-0.0536,-0.0536,-0.0536,0,0,0.0117,0.0063,0.0041,0.0029,-0.0008,-0.0072,-0.0082,-0.0114,-0.0167,-0.0176,-0.0258,-0.028,-0.0328,-0.0377,-0.0375,-0.0435,-0.047,-0.0472,-0.0395,-0.0387,-0.038,-0.0366,-0.0434,0,0,0,0,0,0.0068,0.0072,0.0053,0.0044,-0.0022,-0.006,-0.007,-0.0121,-0.0142,-0.0145,-0.0211,-0.0255,-0.0389,-0.0389,-0.0409,-0.0402,-0.0543,-0.0542,-0.0541,-0.0451,-0.0441,-0.0433,0,0,0,0,0,0,0.0063,0.0053,0.0053,-0.0008,-0.0024,-0.006,-0.0101,-0.0115,-0.0142,-0.0148,-0.0241,-0.0258,-0.0316,-0.0384,-0.04,-0.0393,-0.0428,-0.0542,-0.0541,-0.054,-0.0448,-0.044,-0.0433,0,0,0,0,0,0.006,0.0052,-0.0038,-0.0009,-0.0023,-0.009,-0.0102,-0.0114,-0.0136,-0.0226,-0.0243,-0.0173,-0.0314,-0.0333,-0.0394,-0.0383,-0.0417,-0.0423,-0.0542,-0.0541,-0.054,-0.0444,0,0,0,0,0,0,0.0057,0.0036,-0.0042,-0.0049,-0.0012,-0.0089,-0.0101,-0.0112,-0.0214,-0.023,-0.0162,-0.0166,-0.0312,-0.0328,-0.0342,-0.0375,-0.0408,-0.0415,-0.0418,-0.0541,-0.054,-0.054,0,0,0,0,0,0,0.004,0.0031,-0.0046,-0.0046,-0.0054,-0.0088,-0.0099,-0.0158,-0.0216,-0.0146,-0.0151,-0.0163,-0.0303,-0.0324,-0.0335,-0.0425,-0.0402,-0.0407,-0.0411,-0.0414,-0.0541,-0.054,0,0,0,0,0,0,0.0035,0.0027,-0.0045,-0.0051,-0.0057,-0.0139,-0.0144,-0.0217,-0.019,-0.0141,-0.0192,-0.0193,-0.03,-0.0312,-0.033,-0.0415,-0.0422,-0.0402,-0.0406,-0.0409,-0.041,0,0,0,0,0,0,0,0.0031,0.0101,-0.0001,-0.0054,-0.006,-0.0112,-0.0114,-0.0116,-0.0191,-0.0191,-0.0192,-0.0193,-0.0369,-0.0375,-0.0382,-0.0406,0,0,-0.0401,-0.0404,0,0,0,0,0,0,0,0,0.0102,0.0101,-0.0001,-0.0002,-0.0004,-0.0113,-0.0114,-0.0116,-0.0191,-0.0191,-0.0192,-0.0193,-0.0371,-0.0376,-0.0381,0,0,0,0,0,0,0,0,0,0,0,0,0,0,0,-0.0001,-0.0002,0,-0.0113,-0.0114,-0.0116,-0.0191,-0.0191,-0.0192,-0.0192,-0.0372,-0.0376,-0.038,0,0,0,0,0,0,0,0,0,0,0,0,0,0,0,0,0,0,0,0,0,0,0,0,0,0,0,0,0,0,0,0,0,0,0,0,0,0,0,0,0,0,0,0,0,0,0,0,0,0,0,0,0,0,0,0,0,0,0,0,0,0,0,0,0,0,0,0,0]}]],[[{"header":{"parameterUnit":"kt","parameterCategory":2,"dx":1,"dy":1,"la1":30.253999710083008,"la2":30.299108505249023,"lo1":-89.0895004272461,"lo2":-89.04439544677734,"nx":28,"ny":28,"refTime":"2022-10-24T21:00:00:Z","depth":"2","parameterNumber":2,"parameterNumberName":"U-component_of_CURRENTS"},"data":[0.2509,0.2512,0.254,0.2572,0.262,0.2656,0.2722,0.2863,0.3089,0.3292,0.3471,0.3916,0.4212,0.3784,0.3803,0.365,0.3611,0.3511,0.4574,0.4149,0.4161,0.4213,0.3987,0,0,0,0,0,0.2544,0.2573,0.261,0.2673,0.2702,0.2772,0.2914,0.2986,0.3216,0.3555,0.387,0.3833,0.4068,0.4248,0.4216,0.43,0.405,0.4102,0.3711,0.374,0.3763,0.358,0.35,0.3494,0.3488,0.3483,0,0,0.262,0.2625,0.2677,0.2729,0.2787,0.2866,0.2923,0.31,0.3317,0.3628,0.3945,0.4258,0.4473,0.4795,0.4762,0.4727,0.4992,0.4716,0.4706,0.47,0.4589,0.4569,0.4764,0.4768,0.4772,0.4775,0.4777,0,0.2683,0.271,0.2748,0.2806,0.286,0.2935,0.3048,0.3147,0.3373,0.3599,0.3964,0.4224,0.4685,0.4801,0.5096,0.5094,0.4821,0.4871,0.5157,0.4183,0.4148,0.4147,0.4134,0.4281,0.4282,0.4283,0.4284,0.4285,0.2746,0.2765,0.2856,0.2884,0.2923,0.3,0.3055,0.322,0.3319,0.3681,0.3778,0.416,0.4413,0.4853,0.4928,0.5115,0.5042,0.489,0.4593,0.4777,0.4786,0.4755,0.4726,0.43,0.4298,0.4296,0.4295,0,0.2777,0.2838,0.2886,0.2983,0.3016,0.305,0.3195,0.3259,0.3414,0.3583,0.3645,0.3914,0.4206,0.4363,0.4563,0.4566,0.4725,0.4803,0.4477,0.4477,0.4703,0.4681,0.5001,0.5008,0.5014,0.5019,0.5023,0,0.2841,0.2874,0.2965,0.2985,0.304,0.312,0.3192,0.3261,0.3405,0.3521,0.361,0.3767,0.3863,0.4074,0.4112,0.4367,0.4348,0.437,0.4413,0.4089,0.4074,0.4105,0.4086,0.4244,0.4241,0.4239,0.4237,0,0.2855,0.2942,0.2982,0.301,0.311,0.3142,0.3198,0.3293,0.337,0.3487,0.3583,0.3677,0.3798,0.3859,0.4017,0.3912,0.4256,0.4117,0.4303,0.4315,0.4075,0.4062,0.4234,0.4234,0.4233,0.4232,0.4231,0,0.2898,0.2944,0.2995,0.3084,0.3106,0.3142,0.3236,0.3286,0.3393,0.3441,0.3513,0.3563,0.3674,0.3616,0.3807,0.3733,0.3801,0.3859,0.3872,0.3987,0.3975,0.3921,0.4029,0.4025,0.4022,0.4019,0.4016,0,0.2894,0.2955,0.2999,0.3058,0.3097,0.3155,0.3201,0.3265,0.3317,0.339,0.3437,0.3502,0.347,0.3508,0.355,0.3643,0.3716,0.3586,0.3799,0.3807,0.3911,0.406,0.3729,0.3986,0.3979,0.3983,0.3986,0,0.2889,0.2976,0.2981,0.3015,0.3087,0.3122,0.3173,0.3239,0.3282,0.3322,0.3387,0.3423,0.3443,0.3462,0.348,0.3528,0.3662,0.353,0.3533,0.3659,0.3869,0.3995,0.4033,0.3639,0.3642,0.3644,0.3957,0,0.2925,0.296,0.2978,0.3036,0.3073,0.3109,0.3161,0.3196,0.3219,0.325,0.3314,0.3337,0.3382,0.3392,0.3394,0.3472,0.3512,0.3471,0.3453,0.3506,0.364,0.3663,0.3379,0.3378,0.3377,0.3377,0,0,0.2902,0.2944,0.2983,0.3018,0.3048,0.3089,0.3121,0.3151,0.3198,0.3222,0.3215,0.3286,0.3294,0.3358,0.3374,0.3375,0.3441,0.3372,0.3471,0.3481,0.3491,0.362,0.3643,0.3376,0.3375,0.3375,0.3375,0,0.2915,0.2948,0.2971,0.3006,0.3058,0.3085,0.3098,0.3142,0.3164,0.3199,0.3213,0.3247,0.3275,0.3303,0.3319,0.3364,0.3402,0.3372,0.34,0.3463,0.3474,0.3484,0.3614,0.3635,0.3374,0.3374,0.3374,0,0.2914,0.2947,0.2961,0.3016,0.3044,0.3078,0.3086,0.3124,0.3151,0.3153,0.3187,0.3206,0.3227,0.3265,0.3281,0.3269,0.3377,0.3308,0.3311,0.3314,0.3379,0.3391,0.3402,0.3261,0.326,0.326,0,0,0.2921,0.2947,0.2995,0.302,0.304,0.3073,0.3093,0.3114,0.3143,0.3155,0.3169,0.3188,0.3215,0.3229,0.3248,0.3275,0.3319,0.3294,0.3299,0.3304,0.3309,0.3374,0.3386,0.3258,0.3258,0.3258,0,0,0.2921,0.2972,0.2984,0.3016,0.3054,0.3091,0.3109,0.3123,0.3149,0.3151,0.316,0.3166,0.3203,0.3203,0.3186,0.3244,0.3222,0.3225,0.3244,0.325,0.3256,0.3258,0.3175,0,0,0,0,0,0.2949,0.2966,0.2977,0.2987,0.3041,0.3084,0.3091,0.3118,0.3117,0.3135,0.3152,0.3146,0.3202,0.3187,0.319,0.3213,0.3241,0.3244,0.3247,0.3277,0.3284,0.329,0,0,0,0,0,0,0.2953,0.2965,0.2976,0.3013,0.3026,0.3083,0.3083,0.309,0.3117,0.312,0.3143,0.3146,0.3152,0.3185,0.3187,0.321,0.3174,0.3242,0.3245,0.3247,0.328,0.3285,0.329,0,0,0,0,0,0.2956,0.2966,0.3047,0.3013,0.3024,0.3064,0.3083,0.3089,0.311,0.3128,0.3133,0.3132,0.3152,0.3155,0.3186,0.3209,0.3172,0.3173,0.3244,0.3246,0.3248,0.3283,0,0,0,0,0,0,0.2959,0.2966,0.305,0.3054,0.3014,0.3062,0.3071,0.3088,0.3116,0.3122,0.3116,0.3117,0.3151,0.3154,0.3157,0.321,0.3171,0.3172,0.3172,0.3246,0.3247,0.3249,0,0,0,0,0,0,0.2961,0.2969,0.3052,0.3052,0.3057,0.306,0.3068,0.3078,0.3116,0.3101,0.3105,0.3116,0.3145,0.3153,0.3156,0.317,0.317,0.3171,0.3171,0.3172,0.3247,0.3248,0,0,0,0,0,0,0.2965,0.2972,0.3051,0.3054,0.3058,0.3105,0.3068,0.3119,0.3127,0.3099,0.3128,0.3129,0.3143,0.3146,0.3155,0.3168,0.3169,0.317,0.317,0.3171,0.3171,0,0,0,0,0,0,0,0.2968,0.2917,0.3028,0.3056,0.3059,0.3094,0.3095,0.3096,0.3127,0.3128,0.3128,0.3128,0.3164,0.3165,0.3166,0.3166,0,0,0.317,0.317,0,0,0,0,0,0,0,0,0.2914,0.2916,0.3028,0.3029,0.3031,0.3094,0.3095,0.3096,0.3128,0.3128,0.3128,0.3128,0.3164,0.3165,0.3166,0,0,0,0,0,0,0,0,0,0,0,0,0,0,0,0.3028,0.3029,0,0.3094,0.3095,0.3095,0.3128,0.3128,0.3128,0.3128,0.3164,0.3165,0.3166,0,0,0,0,0,0,0,0,0,0,0,0,0,0,0,0,0,0,0,0,0,0,0,0,0,0,0,0,0,0,0,0,0,0,0,0,0,0,0,0,0,0,0,0,0,0,0,0,0,0,0,0,0,0,0,0,0,0,0,0,0,0,0,0,0,0,0,0,0]}],[{"header":{"parameterUnit":"kt","parameterCategory":2,"dx":1,"dy":1,"la1":30.253999710083008,"la2":30.299108505249023,"lo1":-89.0895004272461,"lo2":-89.04439544677734,"nx":28,"ny":28,"refTime":"2022-10-24T21:00:00:Z","depth":"2","parameterNumber":3,"parameterNumberName":"V-component_of_CURRENTS"},"data":[0.0604,0.0686,0.0724,0.0936,0.1053,0.1261,0.1411,0.1615,0.1786,0.1967,0.204,0.2004,0.1326,0.0731,0.0024,-0.0435,-0.051,-0.0518,-0.0387,-0.0257,-0.0244,-0.0727,-0.0711,0,0,0,0,0,0.0566,0.0615,0.0694,0.0809,0.0927,0.0956,0.1151,0.1285,0.1565,0.1749,0.1902,0.1519,0.1086,0.0566,-0.0251,-0.0759,-0.0806,-0.0883,-0.0848,-0.084,-0.0833,-0.0832,-0.0909,-0.091,-0.0911,-0.0912,0,0,0.0503,0.0541,0.0589,0.0673,0.075,0.088,0.0998,0.1116,0.1301,0.1518,0.1516,0.158,0.1092,0.045,-0.0046,-0.0576,-0.0561,-0.0761,-0.0758,-0.0754,-0.0749,-0.0725,-0.0803,-0.0803,-0.0803,-0.0803,-0.0803,0,0.0449,0.0452,0.0486,0.0569,0.0622,0.0694,0.0764,0.0861,0.0914,0.1036,0.1216,0.1238,0.089,0.0529,0.0,-0.0252,-0.0567,-0.0628,-0.0569,-0.0666,-0.0638,-0.0661,-0.0656,-0.0702,-0.0702,-0.0701,-0.0701,-0.0701,0.0384,0.0405,0.0436,0.0476,0.048,0.052,0.0561,0.0563,0.063,0.0736,0.0806,0.0754,0.075,0.0391,-0.0016,-0.0369,-0.0402,-0.0603,-0.0694,-0.0636,-0.0662,-0.0657,-0.0652,-0.0695,-0.0696,-0.0697,-0.0697,0,0.0353,0.034,0.0376,0.0378,0.0388,0.0416,0.0458,0.0492,0.0484,0.0572,0.0579,0.0517,0.0413,0.0169,-0.0055,-0.0275,-0.0472,-0.0539,-0.0493,-0.0521,-0.0647,-0.0643,-0.0699,-0.07,-0.0701,-0.0702,-0.0703,0,0.0291,0.0313,0.0299,0.0314,0.0358,0.0319,0.0357,0.0329,0.0328,0.0391,0.0255,0.0309,0.0062,-0.0023,-0.0211,-0.0387,-0.0364,-0.0569,-0.0601,-0.0588,-0.0589,-0.0592,-0.0594,-0.057,-0.057,-0.057,-0.0569,0,0.0237,0.0242,0.0266,0.0264,0.025,0.0254,0.0243,0.0201,0.0221,0.0158,0.0187,0.0052,0.004,-0.0119,-0.0261,-0.0293,-0.0401,-0.0469,-0.0582,-0.0584,-0.0625,-0.063,-0.0569,-0.0569,-0.0569,-0.0569,-0.0569,0,0.0172,0.0178,0.0202,0.0202,0.02,0.02,0.0186,0.017,0.0108,0.0081,0.0018,-0.0046,-0.0121,-0.0185,-0.0328,-0.0305,-0.0398,-0.0468,-0.0472,-0.054,-0.0582,-0.0603,-0.0585,-0.0524,-0.0523,-0.0523,-0.0522,0,0.0134,0.0148,0.0115,0.0134,0.014,0.0089,0.0081,0.0041,0.0,-0.0027,-0.0121,-0.0157,-0.0241,-0.0257,-0.0316,-0.0405,-0.0443,-0.042,-0.0543,-0.0547,-0.0569,-0.0545,-0.0538,-0.0575,-0.0516,-0.0517,-0.0517,0,0.0096,0.0062,0.0063,0.0068,0.0025,0.0017,-0.0002,-0.0039,-0.0042,-0.0113,-0.0126,-0.0228,-0.0272,-0.0319,-0.0385,-0.0424,-0.0435,-0.0468,-0.0473,-0.0476,-0.0505,-0.0533,-0.054,-0.0471,-0.0471,-0.0472,-0.0512,0,0.0041,0.0035,0.0036,0.0011,-0.0007,-0.0014,-0.0066,-0.0087,-0.0124,-0.0167,-0.0222,-0.031,-0.0378,-0.0402,-0.0455,-0.0482,-0.0498,-0.0535,-0.0569,-0.0538,-0.056,-0.0563,-0.055,-0.0552,-0.0554,-0.0555,0,0,0.0015,0.0002,-0.0045,-0.0048,-0.0061,-0.0123,-0.0119,-0.0156,-0.0225,-0.0245,-0.0268,-0.0387,-0.0455,-0.051,-0.0504,-0.054,-0.0563,-0.0545,-0.055,-0.0549,-0.0549,-0.0567,-0.0569,-0.0558,-0.0558,-0.0559,-0.0559,0,-0.0012,-0.0042,-0.0041,-0.0066,-0.0109,-0.0144,-0.0145,-0.0203,-0.023,-0.0272,-0.0337,-0.0389,-0.0475,-0.0529,-0.0569,-0.0557,-0.061,-0.0569,-0.052,-0.0561,-0.0558,-0.0556,-0.0573,-0.0573,-0.0563,-0.0563,-0.0562,0,-0.0044,-0.0074,-0.0083,-0.0127,-0.0161,-0.0176,-0.0225,-0.0249,-0.0263,-0.0354,-0.0389,-0.0449,-0.0532,-0.0572,-0.0597,-0.0613,-0.065,-0.0646,-0.0639,-0.0643,-0.0689,-0.0685,-0.0681,-0.0727,-0.0727,-0.0727,0,0,-0.006,-0.0073,-0.0129,-0.0138,-0.0153,-0.0211,-0.0232,-0.0263,-0.0318,-0.0341,-0.0403,-0.0469,-0.0527,-0.056,-0.062,-0.0657,-0.0694,-0.0661,-0.0654,-0.0647,-0.0646,-0.069,-0.0687,-0.0728,-0.0728,-0.0728,0,0,-0.0073,-0.0129,-0.015,-0.0163,-0.0201,-0.0266,-0.0275,-0.0306,-0.0359,-0.0366,-0.0449,-0.047,-0.0517,-0.0567,-0.0565,-0.0624,-0.0661,-0.0663,-0.0583,-0.0575,-0.0567,-0.0551,-0.0624,0,0,0,0,0,-0.0124,-0.012,-0.0138,-0.0148,-0.0216,-0.0254,-0.0266,-0.0315,-0.0333,-0.0337,-0.0401,-0.0445,-0.0579,-0.0579,-0.0599,-0.0591,-0.0735,-0.0734,-0.0732,-0.064,-0.063,-0.0621,0,0,0,0,0,0,-0.0128,-0.0139,-0.0139,-0.0201,-0.0217,-0.0255,-0.0295,-0.0308,-0.0334,-0.0339,-0.0431,-0.0448,-0.0507,-0.0574,-0.0591,-0.0582,-0.0619,-0.0734,-0.0733,-0.0732,-0.0636,-0.0628,-0.0621,0,0,0,0,0,-0.0132,-0.0141,-0.0232,-0.0202,-0.0216,-0.0282,-0.0295,-0.0307,-0.0327,-0.0418,-0.0435,-0.0362,-0.0505,-0.0524,-0.0585,-0.0572,-0.0608,-0.0614,-0.0734,-0.0733,-0.0732,-0.0632,0,0,0,0,0,0,-0.0135,-0.0156,-0.0237,-0.0244,-0.0204,-0.0281,-0.0293,-0.0305,-0.0406,-0.0422,-0.0354,-0.0358,-0.0504,-0.0519,-0.0533,-0.0564,-0.0599,-0.0605,-0.0608,-0.0733,-0.0732,-0.0732,0,0,0,0,0,0,-0.0152,-0.0161,-0.024,-0.0239,-0.0246,-0.028,-0.0291,-0.0352,-0.0408,-0.0337,-0.0343,-0.0355,-0.0494,-0.0515,-0.0527,-0.0619,-0.0592,-0.0597,-0.0601,-0.0604,-0.0733,-0.0732,0,0,0,0,0,0,-0.0158,-0.0166,-0.0237,-0.0243,-0.0249,-0.0331,-0.0337,-0.0411,-0.0382,-0.0333,-0.0383,-0.0384,-0.049,-0.0502,-0.0522,-0.0608,-0.0616,-0.0592,-0.0596,-0.0599,-0.06,0,0,0,0,0,0,0,-0.0162,-0.0091,-0.0195,-0.0246,-0.0252,-0.0308,-0.031,-0.0311,-0.0382,-0.0383,-0.0383,-0.0384,-0.0558,-0.0565,-0.0571,-0.06,0,0,-0.0591,-0.0594,0,0,0,0,0,0,0,0,-0.0089,-0.009,-0.0195,-0.0196,-0.0198,-0.0308,-0.0309,-0.0311,-0.0382,-0.0383,-0.0383,-0.0384,-0.056,-0.0565,-0.057,0,0,0,0,0,0,0,0,0,0,0,0,0,0,0,-0.0195,-0.0196,0,-0.0308,-0.0309,-0.0311,-0.0382,-0.0383,-0.0383,-0.0383,-0.0561,-0.0566,-0.057,0,0,0,0,0,0,0,0,0,0,0,0,0,0,0,0,0,0,0,0,0,0,0,0,0,0,0,0,0,0,0,0,0,0,0,0,0,0,0,0,0,0,0,0,0,0,0,0,0,0,0,0,0,0,0,0,0,0,0,0,0,0,0,0,0,0,0,0,0]}]],[[{"header":{"parameterUnit":"kt","parameterCategory":2,"dx":1,"dy":1,"la1":30.253999710083008,"la2":30.299108505249023,"lo1":-89.0895004272461,"lo2":-89.04439544677734,"nx":28,"ny":28,"refTime":"2022-10-24T21:00:00:Z","depth":"4","parameterNumber":2,"parameterNumberName":"U-component_of_CURRENTS"},"data":[0.1538,0.1612,0.1657,0.1704,0.1758,0.1869,0.1968,0.2105,0.2155,0.2382,0.2492,0.266,0.2858,0.2957,0.305,0.3087,0.3,0.3422,0.3416,0.3368,0.338,0.3391,0.3222,0,0,0,0,0,0.1589,0.1624,0.1703,0.1803,0.1919,0.1997,0.2158,0.2245,0.2457,0.2516,0.2646,0.2811,0.2964,0.3098,0.3094,0.3287,0.3359,0.3266,0.321,0.3376,0.3389,0.322,0,0,0,0,0,0,0.1667,0.1698,0.1814,0.1908,0.2029,0.2099,0.2179,0.231,0.2428,0.2725,0.2781,0.303,0.3242,0.3306,0.3387,0.3421,0.3357,0.3222,0.3243,0.3257,0.3099,0.2991,0.2997,0,0,0,0,0,0.1734,0.1816,0.1889,0.2013,0.2111,0.2206,0.2345,0.2402,0.2617,0.2793,0.2954,0.306,0.3258,0.3374,0.3475,0.3501,0.3569,0.3557,0.3561,0.3401,0.3345,0.3332,0.3323,0.3439,0.3441,0.3442,0.3442,0,0.1822,0.1863,0.2038,0.2096,0.2171,0.2294,0.2372,0.2554,0.2644,0.2917,0.298,0.3225,0.3339,0.3451,0.3568,0.3644,0.3597,0.3593,0.3422,0.3365,0.3351,0.3339,0.3326,0.3453,0.3452,0.3451,0.345,0,0.1865,0.1966,0.2052,0.2205,0.2258,0.2326,0.2502,0.2578,0.2744,0.2892,0.2961,0.3171,0.3339,0.3456,0.3613,0.3529,0.3581,0.3565,0.3642,0.3637,0.3355,0.3338,0.3471,0.3467,0.3463,0.3461,0.3458,0,0.1949,0.201,0.2157,0.2191,0.2283,0.2382,0.2492,0.2586,0.2745,0.2849,0.2974,0.3079,0.3228,0.3356,0.339,0.3439,0.3555,0.3372,0.337,0.3411,0.3395,0.3396,0.3376,0.3548,0.3547,0.3545,0.3544,0,0.1978,0.2094,0.2164,0.22,0.2325,0.2387,0.2463,0.2589,0.2671,0.2836,0.2924,0.3051,0.316,0.3234,0.3322,0.3279,0.3495,0.3433,0.334,0.3331,0.338,0.3363,0.3543,0.3542,0.3542,0.3542,0.3541,0,0.2029,0.2089,0.217,0.2278,0.2305,0.2363,0.2487,0.2556,0.2693,0.2764,0.2868,0.2927,0.305,0.3017,0.318,0.313,0.3181,0.322,0.3227,0.3064,0.3007,0.3138,0.3288,0.3285,0.3283,0.328,0.3278,0,0.2028,0.2107,0.2155,0.2238,0.2281,0.2352,0.2419,0.2501,0.2581,0.2684,0.275,0.2842,0.2826,0.2884,0.2945,0.3013,0.3085,0.2986,0.3123,0.3127,0.2975,0.3078,0.3058,0.3242,0.3247,0.325,0.3253,0,0.201,0.2114,0.2128,0.2171,0.2253,0.2287,0.2368,0.2446,0.2514,0.2595,0.2687,0.2752,0.2791,0.2812,0.2833,0.2897,0.3032,0.29,0.2902,0.2966,0.321,0.3055,0.3061,0.3042,0.3045,0.3048,0.3228,0,0.203,0.2084,0.2112,0.2174,0.2216,0.2265,0.2318,0.2382,0.2441,0.2481,0.2585,0.262,0.2686,0.2707,0.2707,0.2813,0.2822,0.2794,0.2763,0.2846,0.2913,0.2933,0.2677,0.2676,0.2674,0.2673,0,0,0.1997,0.2043,0.2081,0.2119,0.2155,0.2203,0.2243,0.2287,0.2359,0.2402,0.2416,0.2523,0.2543,0.2617,0.2653,0.2654,0.2702,0.2665,0.2797,0.281,0.2823,0.2891,0.2911,0.2671,0.2671,0.267,0.267,0,0.1982,0.2029,0.2064,0.2097,0.2158,0.2178,0.2205,0.2257,0.2303,0.2371,0.2389,0.2451,0.2507,0.2535,0.2552,0.2632,0.2649,0.2653,0.2715,0.2783,0.2799,0.2812,0.2882,0.2902,0.2667,0.2667,0.2667,0,0.1956,0.1987,0.201,0.2061,0.2097,0.2132,0.2142,0.2202,0.2244,0.2248,0.2336,0.2363,0.2384,0.2449,0.2484,0.2467,0.2605,0.2543,0.255,0.2551,0.262,0.2637,0.2653,0.2451,0.245,0.245,0,0,0.1944,0.1983,0.2015,0.2057,0.208,0.2118,0.2147,0.2178,0.2219,0.2249,0.2286,0.2328,0.2362,0.2398,0.2422,0.2478,0.2498,0.2518,0.2528,0.2537,0.2542,0.2612,0.2629,0.2447,0.2447,0.2447,0,0,0.1934,0.1975,0.1996,0.204,0.2077,0.2101,0.2142,0.2166,0.2223,0.2248,0.2262,0.2273,0.2348,0.235,0.232,0.2425,0.2381,0.2388,0.2431,0.2444,0.2454,0.2454,0.23,0,0,0,0,0,0.1933,0.1963,0.1981,0.1993,0.205,0.2085,0.2094,0.2141,0.2167,0.22,0.2243,0.2239,0.2342,0.2315,0.232,0.2373,0.2418,0.2423,0.2428,0.2496,0.2509,0.2521,0,0,0,0,0,0,0.1938,0.195,0.1981,0.2002,0.2016,0.2083,0.2093,0.2105,0.2166,0.2175,0.2229,0.2238,0.2241,0.2311,0.2317,0.2367,0.2299,0.242,0.2424,0.2428,0.2501,0.2511,0.2521,0,0,0,0,0,0.1941,0.1951,0.2036,0.2002,0.2014,0.2076,0.2094,0.2105,0.2164,0.2181,0.2193,0.2207,0.2238,0.2248,0.2314,0.2365,0.2295,0.2297,0.2423,0.2426,0.2429,0.2506,0,0,0,0,0,0,0.1944,0.1954,0.2039,0.2044,0.2018,0.2076,0.2087,0.2105,0.2168,0.218,0.2153,0.2158,0.2236,0.2244,0.2251,0.2366,0.2292,0.2294,0.2295,0.2426,0.2428,0.2431,0,0,0,0,0,0,0.1949,0.1958,0.2042,0.2059,0.2066,0.2075,0.2086,0.2101,0.2168,0.2136,0.2143,0.2155,0.2234,0.2241,0.2247,0.2267,0.2289,0.2291,0.2293,0.2294,0.2428,0.243,0,0,0,0,0,0,0.1953,0.1961,0.2057,0.2063,0.2069,0.2127,0.2089,0.215,0.2173,0.2132,0.2178,0.218,0.2231,0.2237,0.2244,0.2261,0.2266,0.229,0.2291,0.2292,0.2292,0,0,0,0,0,0,0,0.1957,0.19,0.2013,0.2066,0.2072,0.2092,0.2093,0.2094,0.2173,0.2175,0.2177,0.2179,0.2278,0.228,0.2283,0.2257,0,0,0.2289,0.229,0,0,0,0,0,0,0,0,0.1897,0.1899,0.2013,0.2014,0.2015,0.2092,0.2093,0.2093,0.2174,0.2175,0.2177,0.2179,0.2279,0.2281,0.2282,0,0,0,0,0,0,0,0,0,0,0,0,0,0,0,0.2013,0.2014,0,0.2092,0.2093,0.2093,0.2174,0.2175,0.2177,0.2178,0.2279,0.2281,0.2282,0,0,0,0,0,0,0,0,0,0,0,0,0,0,0,0,0,0,0,0,0,0,0,0,0,0,0,0,0,0,0,0,0,0,0,0,0,0,0,0,0,0,0,0,0,0,0,0,0,0,0,0,0,0,0,0,0,0,0,0,0,0,0,0,0,0,0,0,0]}],[{"header":{"parameterUnit":"kt","parameterCategory":2,"dx":1,"dy":1,"la1":30.253999710083008,"la2":30.299108505249023,"lo1":-89.0895004272461,"lo2":-89.04439544677734,"nx":28,"ny":28,"refTime":"2022-10-24T21:00:00:Z","depth":"4","parameterNumber":3,"parameterNumberName":"V-component_of_CURRENTS"},"data":[0.0064,0.0126,0.0169,0.0288,0.0353,0.0451,0.0513,0.0542,0.0578,0.06,0.0452,0.0392,0.0085,0.0265,-0.022,-0.0294,-0.0366,-0.0774,-0.0779,-0.0871,-0.0866,-0.0862,-0.0821,0,0,0,0,0,0.0063,0.01,0.0173,0.0258,0.0346,0.039,0.0488,0.0513,0.0556,0.0604,0.0598,0.0441,0.0136,-0.0004,-0.0219,-0.0363,-0.0636,-0.0627,-0.0699,-0.0868,-0.0863,-0.0825,0,0,0,0,0,0,0.0056,0.0087,0.0138,0.0211,0.0294,0.0379,0.0408,0.0478,0.053,0.0561,0.0558,0.037,0.0265,-0.0057,-0.0282,-0.05,-0.0546,-0.0587,-0.0597,-0.0595,-0.0524,-0.0477,-0.0467,0,0,0,0,0,0.0041,0.0054,0.0093,0.0174,0.0229,0.0298,0.0361,0.0414,0.0447,0.0448,0.0467,0.0321,0.0139,-0.0106,-0.0352,-0.056,-0.0728,-0.08,-0.0798,-0.0789,-0.0779,-0.0811,-0.0805,-0.0843,-0.0842,-0.0842,-0.0841,0,0.0012,0.0037,0.0092,0.013,0.0145,0.0197,0.024,0.0265,0.0313,0.0325,0.0352,0.023,0.014,-0.0137,-0.0375,-0.0662,-0.0709,-0.0786,-0.0775,-0.0769,-0.0804,-0.08,-0.0796,-0.0837,-0.0837,-0.0838,-0.0838,0,-0.0003,0.0007,0.005,0.0083,0.0102,0.0135,0.0186,0.0222,0.022,0.0261,0.0258,0.0175,0.0023,-0.0173,-0.0374,-0.0498,-0.0664,-0.0731,-0.0655,-0.0692,-0.079,-0.0788,-0.083,-0.0832,-0.0833,-0.0834,-0.0835,0,-0.0034,-0.0008,0.001,0.0029,0.0083,0.0072,0.012,0.0117,0.0126,0.0158,0.0071,0.0069,-0.0109,-0.0223,-0.0376,-0.0553,-0.0536,-0.0677,-0.0716,-0.0655,-0.0654,-0.0695,-0.0698,-0.066,-0.0659,-0.0659,-0.0658,0,-0.0073,-0.0049,-0.0013,-0.0009,0.0005,0.0022,0.0026,0.0016,0.0034,0.0005,0.001,-0.0077,-0.0125,-0.0239,-0.0417,-0.0421,-0.0564,-0.0589,-0.0698,-0.0702,-0.0693,-0.0697,-0.0657,-0.0657,-0.0657,-0.0657,-0.0657,0,-0.0115,-0.01,-0.0065,-0.0041,-0.0039,-0.003,-0.0016,-0.0019,-0.005,-0.0072,-0.0112,-0.0178,-0.0242,-0.0307,-0.0439,-0.0422,-0.0514,-0.0588,-0.0594,-0.0652,-0.0713,-0.0717,-0.0682,-0.0681,-0.0681,-0.0681,-0.0681,0,-0.0143,-0.0119,-0.0137,-0.011,-0.01,-0.0133,-0.0125,-0.0147,-0.0177,-0.0192,-0.027,-0.0304,-0.0383,-0.0407,-0.0446,-0.0548,-0.0574,-0.0551,-0.0676,-0.068,-0.07,-0.0674,-0.0599,-0.0677,-0.0677,-0.0677,-0.0678,0,-0.0175,-0.0187,-0.0188,-0.0178,-0.0209,-0.0212,-0.0215,-0.0233,-0.0226,-0.0293,-0.0292,-0.0383,-0.0427,-0.0465,-0.0532,-0.0559,-0.0574,-0.0614,-0.0618,-0.0635,-0.0636,-0.0667,-0.0673,-0.06,-0.06,-0.06,-0.0675,0,-0.0209,-0.0211,-0.021,-0.0228,-0.0239,-0.0244,-0.0283,-0.0301,-0.0339,-0.0371,-0.0414,-0.0498,-0.0551,-0.0581,-0.0632,-0.064,-0.0672,-0.0701,-0.0724,-0.0692,-0.0733,-0.0734,-0.0737,-0.0739,-0.074,-0.0741,0,0,-0.0235,-0.0241,-0.0282,-0.0283,-0.029,-0.035,-0.0342,-0.0373,-0.0435,-0.0446,-0.0483,-0.0582,-0.0647,-0.0678,-0.0678,-0.0717,-0.0744,-0.0717,-0.0711,-0.0707,-0.0704,-0.074,-0.0741,-0.0744,-0.0744,-0.0745,-0.0745,0,-0.0253,-0.0281,-0.0279,-0.0299,-0.0338,-0.0365,-0.037,-0.0421,-0.0446,-0.0483,-0.0543,-0.0591,-0.0672,-0.0711,-0.0743,-0.0733,-0.0786,-0.0756,-0.0695,-0.0722,-0.0716,-0.0712,-0.0746,-0.0745,-0.0748,-0.0748,-0.0748,0,-0.0281,-0.0305,-0.0312,-0.0348,-0.0378,-0.0386,-0.0434,-0.0458,-0.0466,-0.0552,-0.0584,-0.0644,-0.0714,-0.0749,-0.0773,-0.0786,-0.0818,-0.0817,-0.0812,-0.08,-0.0829,-0.0823,-0.0817,-0.0889,-0.0889,-0.0889,0,0,-0.0293,-0.0303,-0.0348,-0.0355,-0.037,-0.042,-0.0439,-0.0469,-0.0517,-0.0541,-0.0598,-0.0658,-0.0709,-0.0739,-0.0792,-0.0824,-0.0854,-0.083,-0.0824,-0.0818,-0.0803,-0.0831,-0.0825,-0.0889,-0.0889,-0.0889,0,0,-0.0302,-0.0345,-0.0366,-0.0376,-0.0408,-0.0459,-0.047,-0.0501,-0.0551,-0.0562,-0.0634,-0.0654,-0.0701,-0.0744,-0.074,-0.0795,-0.0827,-0.083,-0.0756,-0.0749,-0.0742,-0.071,-0.079,0,0,0,0,0,-0.034,-0.0337,-0.0355,-0.0363,-0.0417,-0.0447,-0.0456,-0.0503,-0.0526,-0.0532,-0.0591,-0.0631,-0.0753,-0.075,-0.0768,-0.0762,-0.0892,-0.0892,-0.0891,-0.0805,-0.0797,-0.079,0,0,0,0,0,0,-0.0344,-0.0352,-0.0355,-0.0403,-0.0416,-0.0447,-0.0484,-0.0497,-0.0526,-0.0533,-0.0617,-0.0633,-0.0681,-0.0746,-0.0761,-0.0754,-0.0785,-0.0892,-0.0892,-0.0891,-0.0802,-0.0796,-0.079,0,0,0,0,0,-0.0347,-0.0353,-0.0427,-0.0404,-0.0415,-0.0475,-0.0485,-0.0496,-0.0522,-0.0598,-0.0614,-0.0557,-0.0679,-0.0697,-0.0755,-0.0745,-0.0775,-0.078,-0.0892,-0.0892,-0.0891,-0.0799,0,0,0,0,0,0,-0.0349,-0.0367,-0.0431,-0.0436,-0.041,-0.0475,-0.0486,-0.0494,-0.0588,-0.0603,-0.0541,-0.0545,-0.0678,-0.0692,-0.0705,-0.0738,-0.0767,-0.0773,-0.0776,-0.0892,-0.0891,-0.0891,0,0,0,0,0,0,-0.0364,-0.0371,-0.0434,-0.0438,-0.0445,-0.0475,-0.0484,-0.0535,-0.059,-0.0526,-0.0532,-0.0542,-0.0672,-0.0688,-0.0699,-0.0776,-0.0761,-0.0766,-0.077,-0.0772,-0.0891,-0.0891,0,0,0,0,0,0,-0.0368,-0.0375,-0.0437,-0.0442,-0.0448,-0.0517,-0.0523,-0.0585,-0.0566,-0.0523,-0.0568,-0.0569,-0.0668,-0.0679,-0.0694,-0.0766,-0.0773,-0.0761,-0.0765,-0.0767,-0.0769,0,0,0,0,0,0,0,-0.0372,-0.0313,-0.0396,-0.0445,-0.0451,-0.049,-0.0491,-0.0493,-0.0566,-0.0567,-0.0568,-0.0569,-0.0732,-0.0738,-0.0743,-0.0758,0,0,-0.0761,-0.0763,0,0,0,0,0,0,0,0,-0.0312,-0.0313,-0.0396,-0.0397,-0.0398,-0.049,-0.0491,-0.0493,-0.0566,-0.0567,-0.0568,-0.0569,-0.0734,-0.0738,-0.0743,0,0,0,0,0,0,0,0,0,0,0,0,0,0,0,-0.0396,-0.0397,0,-0.049,-0.0491,-0.0492,-0.0566,-0.0567,-0.0568,-0.0568,-0.0735,-0.0739,-0.0743,0,0,0,0,0,0,0,0,0,0,0,0,0,0,0,0,0,0,0,0,0,0,0,0,0,0,0,0,0,0,0,0,0,0,0,0,0,0,0,0,0,0,0,0,0,0,0,0,0,0,0,0,0,0,0,0,0,0,0,0,0,0,0,0,0,0,0,0,0]}]]]